Temp
9 9 9 9 9 9 9 9 9 9 9 9 9 9 9 8 8 8 8 9 10 10 11 10 10 10 10 10 10 10 10 10 10 10 11 11 11 11 11 11 11 11 11 11 12 12 12 11 11 11 11 12 12 12 12 12 12 12 12 12 12 12 12 13 12 12 11 11 11
9 9 9 9 9 9 9 9 9 9 9 9 9 9 8 8 8 8 9 10 10 11 11 11 11 11 10 10 10 10 10 10 11 11 11 11 11 11 11 11 11 11 11 11 11 12 12 11 11 11 11 11 12 12 12 12 12 12 12 11 12 12 12 13 13 12 12 11 11
9 9 9 9 9 9 9 10 9 9 9 9 9 9 8 8 8 8 9 10 11 11 11 11 11 11 11 11 10 10 10 10 11 11 11 11 11 11 11 11 11 11 11 11 11 11 11 11 11 11 11 11 11 11 11 11 11 11 11 11 11 12 12 12 13 12 12 12 11
9 9 9 9 9 9 9 9 9 9 9 9 9 9 8 8 8 8 9 9 10 11 12 12 11 11 11 11 11 10 10 10 11 11 11 11 11 11 11 11 11 11 11 11 11 11 11 11 11 11 11 11 11 11 11 11 11 11 11 11 11 12 12 12 12 12 12 12 12
9 9 9 9 9 9 9 9 9 9 9 9 9 9 9 9 9 9 9 9 10 11 12 12 12 12 11 11 11 10 10 10 11 11 11 11 11 11 11 11 11 11 11 11 11 11 11 11 11 11 11 11 11 11 11 12 11 11 11 11 11 12 12 12 12 12 12 12 12
9 9 9 9 9 9 9 9 9 9 9 9 9 9 9 9 9 9 9 10 10 11 12 12 12 12 12 11 11 10 10 11 11 11 11 11 11 11 11 11 11 11 11 11 11 11 11 11 11 11 11 11 11 11 11 11 11 11 11 11 11 11 12 12 12 12 12 12 11
8 9 9 9 9 9 9 9 9 9 9 9 9 9 9 9 9 9 9 10 10 11 12 12 12 12 11 11 10 10 11 11 11 11 11 11 11 11 11 11 11 11 11 11 11 11 11 11 11 11 11 11 11 11 11 11 11 10 10 11 11 11 11 11 12 11 11 11 11
9 9 9 9 9 9 9 9 9 9 9 9 9 9 9 9 9 9 10 10 10 11 11 11 11 11 11 11 10 10 11 11 11 11 11 11 11 11 11 11 11 11 11 11 11 11 11 11 11 11 11 11 11 11 11 11 11 10 10 10 10 10 10 11 11 11 11 11 11
9 9 9 9 9 9 9 9 9 9 9 9 9 9 9 9 9 9 10 10 10 10 10 10 10 10 11 10 10 11 11 11 11 11 11 11 11 11 11 11 11 11 11 11 11 11 11 11 11 11 11 11 11 11 11 11 10 10 10 10 9 9 10 10 11 11 11 11 10
9 9 9 9 9 9 9 9 9 9 9 9 9 9 9 9 9 9 10 10 10 10 10 10 10 10 10 11 11 11 11 11 11 11 11 11 11 11 11 11 11 11 11 11 11 11 11 11 11 11 11 11 11 11 11 11 10 10 10 9 9 9 9 10 10 10 11 10 10
9 9 9 9 9 9 9 9 9 9 9 9 9 9 9 9 9 9 9 10 10 10 10 10 10 10 10 10 11 11 11 11 11 11 11 11 11 11 11 11 11 11 11 11 11 11 11 11 10 10 11 11 11 11 11 11 11 10 10 10 9 10 10 10 10 10 10 10 10
8 8 8 9 9 9 9 9 9 9 9 9 9 9 9 9 9 9 9 9 10 10 10 10 10 10 10 10 10 10 10 10 11 11 11 11 11 11 11 11 11 11 11 11 11 11 11 11 10 10 10 11 11 11 11 11 10 10 10 10 10 10 10 10 10 9 9 9 9
8 8 8 8 8 9 9 9 9 9 9 9 9 9 9 9 9 9 9 9 9 9 10 10 10 10 10 10 10 10 10 10 10 10 10 11 11 11 10 10 10 10 11 11 11 11 11 11 11 11 11 11 11 11 11 10 10 10 10 10 10 10 10 9 9 9 9 9 9
8 8 8 8 8 9 9 9 9 9 9 9 9 9 9 9 9 9 9 9 9 9 9 9 9 9 10 10 10 10 10 10 10 10 10 10 10 10 10 10 10 10 10 11 11 11 11 11 11 11 11 11 11 10 10 10 10 10 10 10 10 10 9 9 9 9 8 8 9
8 8 8 8 8 8 8 8 8 9 9 9 9 9 9 9 9 9 9 9 9 9 9 9 9 9 9 9 9 10 10 10 10 10 10 10 10 10 10 10 10 10 10 10 10 10 11 11 11 11 11 11 10 10 10 10 10 10 10 10 10 10 9 9 9 9 9 9 9
8 8 8 8 8 8 8 8 8 8 8 8 9 9 9 9 9 9 9 9 9 9 9 9 9 9 9 9 9 9 9 10 10 10 10 10 10 10 10 10 10 10 10 10 10 10 10 10 10 11 10 10 10 10 10 10 10 10 10 10 10 9 9 9 9 9 9 9 9
8 8 8 8 8 8 8 8 8 8 8 8 8 8 9 9 9 9 9 9 9 9 9 9 9 9 9 9 9 9 9 9 9 10 10 10 10 10 10 10 10 10 10 10 10 10 10 10 10 10 10 10 10 10 10 10 10 10 10 9 9 9 9 9 9 9 8 8 8
8 8 8 8 8 8 8 8 8 8 8 8 8 8 8 8 9 9 9 9 9 9 9 9 9 9 9 9 9 9 9 9 9 9 9 9 10 10 10 10 10 10 10 10 10 10 10 10 10 10 10 10 10 10 10 10 10 9 9 9 9 9 9 8 8 8 8 8 8
7 7 8 8 8 8 8 8 7 7 8 8 8 8 8 8 8 9 9 9 9 9 9 9 9 9 9 9 9 9 9 9 9 9 9 9 9 9 9 9 10 10 10 9 10 10 10 10 9 9 9 9 9 9 9 9 9 9 9 9 9 8 8 8 8 7 7 8 8
7 7 7 7 8 8 8 8 7 7 7 8 8 8 8 8 8 8 8 9 9 9 9 9 9 9 8 8 9 9 9 9 9 9 9 9 9 9 9 9 9 9 9 9 9 9 9 9 9 9 9 9 9 9 9 9 9 9 9 8 8 8 7 7 7 7 7 7 8
7 7 7 7 7 7 8 8 7 7 7 7 8 8 8 8 8 8 8 8 8 9 9 9 9 9 8 8 8 8 8 8 9 9 9 9 9 9 9 9 9 9 9 9 9 9 9 9 9 9 9 9 9 9 9 9 8 8 8 8 7 7 7 7 7 7 7 7 7
6 7 7 7 7 7 8 8 8 8 8 8 8 8 8 8 8 8 8 8 8 8 8 8 8 9 9 8 8 8 8 8 8 8 8 8 8 8 8 8 8 9 9 9 9 9 9 9 8 8 8 8 8 8 8 8 8 7 7 7 7 6 6 6 6 6 6 6 7
6 6 7 7 7 7 8 8 8 8 8 8 8 8 8 8 8 8 8 8 8 8 8 8 8 8 8 8 8 8 8 8 8 8 8 8 8 8 8 8 8 8 8 8 8 8 8 8 8 8 8 8 8 8 8 8 7 7 7 6 6 6 6 6 6 6 6 6 6
6 6 7 7 7 7 7 8 8 8 8 8 8 8 8 8 8 8 8 8 8 8 8 8 8 8 8 8 8 8 8 8 8 8 8 8 8 8 8 8 8 8 8 8 8 8 8 8 8 8 8 8 8 8 7 7 7 7 6 6 6 6 6 6 6 6 6 6 7
6 6 6 7 7 7 7 7 8 8 8 8 8 8 8 8 8 8 8 8 8 8 8 8 8 8 8 8 8 8 8 8 8 8 8 8 8 8 8 8 8 8 8 8 8 8 8 8 8 8 8 8 8 7 7 7 7 6 6 6 6 6 6 6 6 6 7 7 7
6 6 6 7 7 7 7 7 7 8 8 8 8 8 8 8 8 8 8 8 8 8 8 8 8 8 8 8 8 8 8 8 8 8 8 8 8 8 8 8 8 8 8 8 8 8 7 7 7 7 7 7 7 7 7 7 7 6 6 6 6 6 6 6 6 6 7 7 7
7 7 7 7 7 7 7 7 7 7 7 8 8 8 8 8 8 8 8 8 8 8 8 8 8 8 8 8 8 8 8 8 8 8 8 8 8 7 8 8 8 8 8 8 8 7 7 7 7 7 7 7 7 7 7 7 7 7 7 7 7 7 7 7 7 7 7 7 7
7 7 7 7 7 7 7 7 7 7 7 7 8 8 8 8 8 8 8 8 8 8 8 8 8 8 8 8 8 8 8 8 8 8 8 8 8 8 8 8 8 8 8 8 8 8 7 7 7 7 7 7 7 7 7 7 7 7 7 7 7 7 7 7 7 7 7 7 7
7 7 7 7 7 7 7 7 7 7 7 7 7 7 8 8 8 8 8 8 8 8 8 7 7 7 7 8 8 8 8 8 8 8 8 8 8 8 8 8 8 8 8 8 8 8 8 8 7 7 7 7 7 7 7 7 7 7 7 7 7 7 7 7 7 7 7 7 7
6 6 7 7 7 7 7 7 7 7 7 7 7 7 7 8 8 8 8 8 8 7 7 7 7 7 7 7 7 7 8 8 8 8 8 8 8 8 8 8 8 8 8 8 8 8 8 8 8 8 7 7 7 7 7 7 7 7 7 7 7 7 7 7 7 7 7 7 7
6 6 6 7 7 7 7 7 7 7 7 7 7 7 7 7 7 7 7 7 7 7 7 7 7 7 7 7 7 7 7 7 8 8 8 8 8 8 8 8 8 8 8 8 8 8 8 8 8 8 7 7 7 7 7 7 7 7 7 7 7 7 7 7 7 7 7 7 7
6 6 6 6 7 7 7 7 7 7 7 7 7 7 7 7 7 7 7 7 7 7 7 7 7 7 7 7 7 7 7 7 7 7 8 8 8 8 8 8 8 8 8 8 8 8 8 8 8 8 8 7 7 7 7 7 7 7 7 7 7 7 7 7 7 6 6 7 7
6 6 6 6 6 6 7 7 7 7 7 7 7 7 7 7 7 7 7 7 7 7 7 7 7 7 7 7 7 7 7 7 7 7 7 7 7 8 8 8 8 8 8 8 8 8 8 8 8 8 8 8 7 7 7 7 7 7 7 7 7 7 7 7 7 7 7 7 7
6 6 6 6 6 6 6 7 7 7 7 7 7 7 7 7 7 7 7 7 7 7 7 7 7 7 7 7 7 7 7 7 7 7 7 7 7 7 7 8 8 8 8 8 8 8 8 8 8 8 8 8 8 8 7 7 7 7 7 7 7 7 7 7 7 7 7 7 7
6 6 6 6 6 6 6 7 7 7 7 7 7 7 7 7 7 7 7 7 7 7 7 7 7 6 6 6 6 7 7 7 7 7 7 7 7 7 7 7 7 7 8 8 8 8 8 8 8 8 8 8 8 8 8 8 7 7 7 7 7 7 7 7 7 7 7 7 7
5 6 6 6 6 6 6 6 6 7 7 7 7 7 7 7 7 7 7 7 7 7 7 7 7 7 7 6 6 6 6 7 7 7 7 7 7 7 7 7 7 7 7 7 8 8 8 8 8 8 8 8 8 8 8 8 8 8 8 8 8 7 7 7 7 7 7 7 7
5 5 6 6 6 6 6 6 6 6 7 7 7 7 7 7 7 7 7 7 7 7 7 7 7 7 7 6 6 6 6 6 6 6 7 7 7 7 7 7 7 7 7 7 7 8 8 8 8 8 8 8 8 8 8 8 8 8 8 8 8 8 8 7 7 7 7 7 7
5 5 5 5 6 6 6 6 6 6 6 6 6 6 6 7 7 7 7 7 7 7 6 6 6 7 7 6 6 6 6 6 6 6 6 6 7 7 7 7 7 7 7 7 7 7 7 8 8 8 8 8 8 8 8 8 8 8 8 8 8 8 7 7 7 7 7 7 7
5 5 5 5 5 6 6 6 6 6 6 6 6 6 6 6 6 6 7 7 7 7 6 6 6 6 6 6 6 6 6 5 5 6 6 6 6 6 7 7 7 7 7 7 7 7 7 7 7 7 8 8 8 8 8 8 8 8 8 8 8 7 7 7 7 7 7 7 7
5 5 5 5 5 5 6 6 6 6 6 6 6 6 6 6 6 6 6 6 7 7 6 6 6 6 6 6 6 6 6 5 5 5 5 6 6 6 6 6 7 7 7 7 7 7 7 7 7 7 7 8 8 8 8 8 8 8 8 8 8 7 7 7 7 7 7 7 7
4 5 5 5 5 5 5 6 6 6 6 6 6 6 6 6 6 6 6 6 6 7 6 6 6 6 6 6 6 6 6 6 5 5 5 5 6 6 6 6 6 6 6 6 6 6 6 7 7 7 7 7 8 8 8 8 8 8 8 8 8 7 7 7 7 7 7 7 7
Height
1345 1344 1343 1343 1343 1342 1343 1343 1344 1344 1345 1345 1346 1346 1346 1346 1345 1345 1346 1346 1347 1348 1349 1350 1350 1351 1352 1352 1353 1354 1355 1356 1356 1357 1358 1359 1360 1361 1362 1364 1365 1366 1367 1368 1370 1371 1372 1373 1374 1376 1377 1379 1381 1383 1384 1386 1387 1388 1390 1391 1392 1394 1396 1397 1398 1399 1400 1402 1404
1347 1346 1345 1344 1344 1344 1343 1344 1344 1345 1345 1346 1346 1346 1346 1346 1346 1346 1346 1346 1347 1348 1349 1350 1351 1351 1352 1353 1354 1355 1356 1356 1357 1358 1360 1360 1361 1362 1363 1365 1366 1367 1368 1369 1370 1371 1372 1373 1374 1375 1376 1378 1380 1381 1383 1384 1386 1387 1388 1390 1391 1393 1394 1396 1397 1398 1400 1401 1403
1350 1348 1346 1345 1345 1345 1345 1345 1345 1345 1346 1346 1346 1347 1346 1346 1346 1346 1346 1346 1347 1348 1349 1350 1351 1352 1353 1354 1355 1356 1357 1357 1358 1359 1360 1361 1362 1363 1364 1365 1366 1367 1368 1369 1370 1371 1372 1373 1374 1375 1376 1377 1378 1380 1382 1383 1385 1386 1387 1389 1391 1392 1393 1395 1396 1398 1399 1400 1402
1352 1350 1348 1347 1346 1347 1349 1348 1348 1347 1346 1347 1347 1347 1347 1347 1347 1347 1347 1347 1347 1348 1349 1350 1351 1352 1353 1355 1356 1357 1357 1358 1358 1359 1360 1361 1362 1363 1364 1366 1366 1367 1368 1369 1371 1371 1373 1373 1374 1375 1376 1377 1378 1380 1381 1383 1384 1386 1387 1388 1390 1391 1392 1394 1395 1396 1398 1399 1401
1354 1353 1352 1351 1349 1348 1348 1349 1349 1349 1348 1348 1348 1348 1348 1349 1349 1349 1349 1349 1349 1349 1350 1351 1351 1352 1354 1355 1356 1356 1357 1358 1359 1359 1361 1361 1363 1364 1365 1366 1367 1367 1368 1369 1371 1372 1373 1374 1374 1375 1376 1377 1379 1380 1381 1383 1384 1385 1386 1387 1389 1390 1391 1392 1394 1395 1396 1398 1400
1357 1356 1355 1353 1352 1351 1351 1350 1351 1350 1350 1350 1349 1349 1349 1350 1350 1350 1350 1350 1350 1350 1350 1351 1352 1353 1354 1355 1356 1357 1358 1358 1359 1360 1361 1362 1363 1364 1365 1366 1367 1368 1369 1370 1371 1372 1373 1374 1375 1376 1376 1378 1379 1380 1381 1382 1383 1384 1385 1386 1387 1388 1390 1391 1392 1394 1396 1398 1400
1360 1359 1357 1356 1355 1354 1353 1352 1352 1352 1351 1351 1351 1351 1351 1351 1351 1351 1351 1351 1351 1351 1351 1352 1352 1353 1354 1355 1356 1357 1358 1359 1360 1361 1362 1363 1364 1365 1366 1366 1367 1368 1369 1370 1371 1372 1373 1374 1375 1375 1376 1377 1379 1380 1381 1382 1383 1383 1384 1385 1386 1387 1388 1389 1391 1393 1396 1398 1400
1363 1361 1360 1358 1357 1356 1355 1354 1354 1353 1353 1353 1353 1353 1352 1352 1351 1351 1351 1351 1352 1352 1352 1352 1353 1353 1354 1355 1356 1357 1359 1360 1361 1361 1362 1363 1364 1365 1366 1366 1367 1368 1369 1370 1371 1372 1373 1374 1374 1375 1376 1377 1378 1380 1381 1381 1382 1383 1384 1384 1385 1386 1387 1389 1391 1394 1396 1398 1400
1365 1364 1362 1361 1360 1359 1358 1357 1356 1355 1354 1354 1354 1354 1354 1353 1353 1353 1352 1352 1353 1353 1353 1353 1353 1354 1354 1355 1357 1358 1359 1360 1361 1362 1363 1364 1365 1365 1366 1367 1367 1368 1369 1370 1371 1372 1373 1374 1374 1375 1376 1377 1378 1379 1380 1381 1382 1383 1384 1384 1385 1386 1388 1390 1392 1394 1396 1398 1400
1368 1366 1365 1364 1362 1361 1360 1359 1358 1357 1356 1356 1356 1356 1356 1356 1355 1355 1354 1354 1354 1354 1354 1354 1354 1355 1355 1356 1357 1358 1359 1360 1361 1362 1363 1364 1365 1366 1366 1367 1368 1369 1369 1370 1371 1372 1373 1374 1374 1375 1376 1377 1378 1378 1380 1381 1382 1383 1385 1386 1387 1388 1390 1391 1393 1394 1396 1397 1399
1371 1369 1368 1366 1365 1364 1363 1362 1361 1359 1358 1358 1357 1357 1357 1357 1357 1357 1356 1356 1356 1356 1356 1356 1356 1356 1357 1358 1359 1359 1360 1361 1361 1362 1363 1365 1366 1366 1367 1368 1368 1369 1370 1371 1372 1373 1373 1374 1374 1375 1376 1376 1378 1379 1380 1381 1382 1384 1386 1387 1388 1390 1391 1392 1393 1394 1395 1396 1398
1373 1372 1370 1369 1368 1366 1365 1364 1363 1361 1361 1360 1359 1358 1358 1358 1359 1359 1358 1358 1358 1357 1357 1358 1357 1358 1358 1359 1360 1360 1361 1362 1362 1363 1364 1365 1366 1366 1367 1368 1369 1370 1371 1371 1372 1372 1373 1373 1374 1375 1376 1377 1378 1379 1380 1381 1383 1384 1386 1387 1388 1390 1391 1392 1393 1394 1395 1396 1397
1376 1374 1372 1371 1369 1368 1367 1366 1365 1364 1363 1362 1361 1361 1360 1360 1360 1360 1360 1360 1360 1359 1359 1359 1359 1359 1359 1360 1360 1361 1362 1363 1363 1364 1365 1365 1366 1367 1367 1368 1369 1370 1371 1371 1372 1372 1372 1373 1374 1375 1376 1377 1378 1379 1380 1381 1381 1383 1384 1386 1388 1389 1390 1391 1392 1393 1394 1395 1396
1378 1376 1375 1373 1371 1370 1368 1367 1367 1366 1365 1364 1363 1363 1362 1361 1361 1361 1361 1361 1361 1361 1361 1361 1361 1361 1361 1361 1361 1362 1363 1363 1364 1365 1365 1366 1366 1367 1368 1368 1369 1370 1371 1371 1371 1372 1373 1374 1375 1376 1376 1377 1377 1378 1379 1380 1380 1381 1383 1385 1387 1389 1390 1391 1392 1393 1394 1395 1396
1380 1378 1377 1375 1374 1372 1371 1369 1368 1368 1367 1366 1366 1365 1364 1363 1363 1362 1361 1362 1362 1362 1362 1362 1362 1362 1362 1362 1363 1363 1364 1364 1365 1366 1366 1367 1367 1368 1368 1369 1370 1370 1371 1371 1372 1372 1373 1374 1375 1376 1376 1377 1377 1378 1378 1379 1380 1381 1382 1384 1386 1388 1390 1391 1392 1393 1394 1395 1396
1382 1381 1379 1377 1376 1374 1373 1371 1371 1370 1369 1368 1368 1367 1366 1366 1365 1364 1363 1363 1363 1364 1364 1363 1363 1363 1363 1364 1364 1364 1365 1365 1366 1366 1367 1367 1368 1368 1369 1369 1370 1371 1371 1371 1372 1373 1374 1375 1375 1376 1376 1377 1377 1378 1378 1379 1379 1380 1382 1384 1386 1388 1390 1391 1392 1393 1394 1395 1396
1384 1383 1381 1380 1378 1376 1375 1374 1373 1372 1371 1370 1369 1369 1368 1368 1367 1366 1366 1365 1364 1365 1365 1365 1365 1365 1364 1365 1365 1365 1366 1366 1367 1367 1368 1368 1368 1369 1369 1370 1370 1371 1371 1372 1372 1373 1374 1375 1375 1376 1376 1377 1377 1378 1378 1378 1379 1380 1382 1384 1386 1388 1390 1391 1392 1393 1394 1395 1396
1386 1385 1383 1382 1380 1379 1377 1376 1375 1374 1373 1372 1371 1370 1370 1369 1369 1368 1368 1367 1366 1366 1366 1366 1366 1366 1366 1366 1366 1366 1366 1367 1367 1368 1368 1369 1369 1370 1370 1370 1371 1371 1371 1372 1372 1373 1373 1374 1375 1376 1376 1377 1377 1378 1378 1378 1379 1380 1382 1384 1386 1388 1389 1390 1391 1392 1393 1394 1396
1388 1386 1385 1384 1382 1381 1380 1379 1377 1376 1375 1374 1373 1372 1371 1371 1371 1370 1370 1369 1368 1368 1367 1366 1367 1367 1367 1367 1367 1367 1367 1368 1368 1369 1369 1369 1370 1370 1370 1371 1371 1371 1371 1372 1372 1373 1373 1374 1374 1375 1376 1376 1377 1377 1378 1379 1380 1381 1383 1384 1386 1387 1387 1388 1389 1391 1391 1393 1394
1389 1388 1387 1386 1385 1383 1382 1381 1380 1378 1377 1376 1375 1374 1373 1372 1372 1371 1371 1371 1370 1370 1369 1368 1368 1367 1368 1368 1368 1368 1368 1369 1369 1369 1369 1369 1370 1370 1370 1371 1371 1371 1371 1372 1372 1373 1373 1374 1374 1375 1376 1376 1377 1377 1378 1379 1381 1382 1383 1384 1385 1386 1386 1387 1388 1389 1390 1391 1393
1391 1390 1389 1388 1387 1386 1384 1383 1382 1381 1379 1378 1377 1376 1375 1374 1373 1373 1372 1372 1371 1371 1371 1370 1370 1369 1369 1369 1369 1369 1369 1369 1369 1369 1369 1370 1370 1370 1370 1370 1371 1371 1371 1372 1372 1373 1373 1374 1375 1375 1376 1376 1377 1378 1379 1380 1381 1382 1383 1384 1384 1385 1386 1386 1387 1388 1389 1390 1391
1393 1392 1391 1390 1388 1387 1386 1385 1384 1382 1381 1380 1379 1377 1376 1376 1375 1374 1374 1373 1373 1372 1372 1371 1371 1371 1370 1370 1370 1370 1370 1370 1369 1369 1370 1370 1370 1370 1370 1370 1370 1371 1371 1371 1372 1373 1374 1374 1375 1375 1376 1376 1377 1378 1379 1380 1381 1382 1382 1383 1384 1384 1385 1386 1386 1387 1388 1389 1391
1394 1393 1392 1391 1390 1389 1387 1386 1385 1384 1383 1381 1380 1379 1378 1377 1376 1376 1375 1374 1374 1373 1373 1372 1372 1372 1371 1371 1371 1371 1370 1370 1370 1370 1370 1370 1370 1370 1370 1370 1370 1371 1371 1371 1372 1373 1374 1375 1375 1375 1376 1376 1377 1378 1379 1380 1381 1381 1382 1382 1383 1384 1384 1385 1385 1386 1387 1389 1391
1396 1394 1393 1392 1391 1390 1389 1387 1386 1385 1384 1382 1381 1381 1380 1379 1378 1377 1376 1376 1375 1374 1374 1373 1373 1372 1372 1372 1372 1371 1371 1371 1371 1371 1370 1370 1370 1370 1370 1370 1370 1371 1371 1371 1372 1373 1374 1375 1375 1375 1376 1376 1377 1378 1379 1379 1380 1381 1381 1382 1382 1383 1384 1384 1385 1385 1386 1388 1390
1396 1395 1394 1393 1392 1391 1390 1388 1387 1386 1385 1384 1383 1382 1381 1380 1379 1378 1377 1376 1376 1375 1375 1374 1374 1373 1373 1373 1372 1372 1372 1371 1371 1371 1371 1371 1371 1371 1371 1371 1371 1371 1371 1372 1373 1373 1374 1374 1375 1376 1376 1376 1377 1377 1378 1379 1379 1380 1381 1381 1382 1382 1383 1384 1384 1385 1386 1387 1388
1397 1396 1395 1393 1392 1391 1390 1389 1388 1387 1386 1385 1384 1383 1381 1381 1380 1379 1378 1378 1377 1376 1376 1375 1375 1374 1374 1373 1373 1372 1372 1372 1372 1371 1371 1371 1372 1371 1371 1371 1371 1371 1372 1372 1373 1373 1374 1374 1375 1375 1375 1376 1376 1376 1377 1378 1378 1379 1380 1381 1381 1382 1383 1383 1384 1385 1385 1386 1387
1398 1396 1395 1394 1393 1392 1391 1390 1389 1388 1386 1386 1384 1383 1382 1381 1381 1380 1379 1378 1378 1377 1376 1376 1375 1375 1374 1374 1373 1373 1373 1372 1372 1372 1372 1371 1372 1372 1372 1372 1372 1372 1372 1373 1373 1374 1374 1374 1374 1375 1375 1375 1376 1376 1376 1376 1377 1378 1379 1380 1381 1381 1382 1383 1383 1384 1385 1386 1387
1399 1397 1396 1395 1393 1392 1391 1391 1389 1388 1387 1386 1385 1384 1383 1382 1381 1380 1380 1379 1378 1378 1377 1376 1376 1375 1375 1375 1374 1374 1373 1373 1373 1373 1372 1372 1372 1372 1372 1373 1373 1373 1373 1373 1373 1374 1374 1374 1374 1374 1375 1375 1375 1375 1375 1376 1376 1377 1377 1378 1379 1380 1381 1381 1382 1383 1384 1385 1386
1400 1398 1397 1396 1394 1393 1392 1391 1390 1389 1388 1387 1386 1385 1384 1383 1382 1381 1380 1379 1378 1378 1377 1376 1376 1376 1376 1375 1375 1374 1374 1374 1373 1373 1373 1373 1373 1372 1372 1372 1372 1373 1373 1373 1373 1374 1374 1374 1374 1374 1374 1374 1374 1374 1374 1375 1375 1376 1376 1377 1378 1379 1380 1380 1381 1382 1383 1384 1385
1401 1399 1398 1396 1395 1394 1392 1391 1390 1389 1389 1388 1387 1386 1385 1383 1382 1381 1380 1379 1379 1378 1377 1377 1377 1376 1376 1376 1375 1375 1375 1374 1374 1373 1373 1373 1373 1373 1373 1372 1372 1372 1373 1373 1373 1373 1373 1373 1373 1373 1373 1373 1373 1373 1373 1374 1374 1374 1375 1376 1376 1377 1378 1379 1380 1381 1382 1383 1384
1401 1400 1399 1397 1396 1395 1393 1392 1391 1390 1389 1388 1387 1386 1385 1384 1383 1381 1381 1380 1379 1379 1378 1378 1377 1376 1376 1376 1375 1375 1375 1374 1374 1374 1373 1373 1373 1373 1373 1372 1372 1372 1372 1372 1372 1372 1372 1372 1372 1372 1372 1372 1372 1372 1372 1373 1373 1373 1374 1375 1376 1376 1377 1378 1379 1380 1381 1382 1383
1402 1401 1399 1398 1397 1396 1394 1393 1392 1391 1390 1389 1388 1386 1386 1384 1383 1382 1381 1381 1380 1379 1378 1378 1377 1376 1376 1376 1375 1375 1375 1374 1374 1374 1373 1373 1373 1373 1372 1372 1372 1372 1371 1371 1371 1371 1371 1371 1371 1371 1371 1371 1371 1371 1371 1372 1372 1373 1373 1374 1375 1376 1376 1377 1378 1379 1380 1381 1382
1402 1401 1400 1399 1397 1396 1395 1394 1393 1391 1390 1389 1388 1387 1386 1385 1384 1383 1382 1381 1380 1379 1378 1377 1377 1376 1376 1375 1375 1375 1374 1374 1374 1373 1373 1373 1373 1372 1372 1372 1372 1371 1371 1371 1370 1370 1370 1370 1370 1370 1370 1370 1370 1370 1371 1371 1371 1372 1373 1373 1374 1375 1376 1376 1377 1378 1378 1379 1380
1402 1401 1400 1399 1398 1397 1396 1395 1393 1392 1391 1390 1388 1387 1386 1385 1384 1383 1382 1381 1380 1379 1379 1378 1377 1376 1376 1375 1375 1374 1374 1374 1373 1373 1373 1372 1372 1372 1372 1371 1371 1371 1371 1371 1370 1370 1369 1369 1369 1370 1370 1370 1369 1369 1370 1370 1371 1371 1371 1372 1373 1374 1374 1375 1376 1376 1377 1378 1379
1403 1401 1401 1400 1398 1397 1396 1395 1394 1393 1391 1390 1389 1387 1386 1385 1384 1383 1382 1381 1381 1380 1379 1378 1377 1377 1376 1376 1375 1374 1374 1373 1373 1372 1372 1372 1371 1371 1371 1371 1371 1370 1370 1370 1370 1369 1369 1368 1368 1368 1369 1369 1369 1369 1369 1369 1369 1370 1370 1371 1372 1372 1373 1374 1374 1376 1376 1377 1378
1403 1402 1401 1400 1399 1398 1397 1396 1394 1393 1392 1390 1389 1388 1386 1385 1384 1383 1382 1382 1381 1380 1379 1378 1378 1377 1376 1376 1375 1374 1373 1373 1372 1372 1371 1371 1371 1371 1370 1370 1370 1369 1369 1369 1369 1369 1369 1368 1368 1368 1368 1368 1369 1369 1368 1368 1368 1369 1369 1370 1371 1371 1372 1373 1373 1374 1376 1376 1377
1403 1402 1401 1400 1399 1398 1397 1396 1395 1393 1392 1391 1389 1388 1387 1386 1385 1384 1383 1381 1381 1380 1379 1378 1378 1377 1376 1375 1375 1374 1373 1373 1372 1372 1371 1371 1370 1370 1370 1369 1369 1369 1368 1368 1368 1368 1368 1368 1367 1367 1367 1367 1367 1368 1368 1368 1368 1368 1368 1369 1370 1371 1371 1372 1373 1373 1374 1375 1376
1404 1403 1402 1401 1400 1399 1397 1396 1395 1394 1392 1391 1390 1389 1388 1386 1385 1384 1383 1381 1380 1379 1379 1378 1377 1376 1376 1375 1375 1374 1373 1372 1372 1371 1371 1370 1370 1369 1369 1369 1368 1368 1368 1367 1367 1367 1367 1367 1367 1367 1366 1366 1366 1367 1367 1367 1367 1367 1367 1367 1369 1370 1371 1371 1372 1372 1373 1374 1374
1404 1403 1402 1401 1400 1399 1398 1396 1395 1394 1392 1391 1390 1389 1388 1387 1386 1384 1383 1382 1381 1380 1379 1378 1377 1376 1376 1375 1375 1374 1373 1373 1372 1371 1371 1370 1369 1369 1369 1368 1368 1367 1367 1367 1366 1366 1366 1366 1366 1366 1366 1366 1366 1366 1366 1366 1366 1366 1366 1366 1368 1369 1370 1370 1371 1371 1372 1373 1373
1404 1403 1402 1401 1400 1399 1398 1396 1395 1394 1393 1392 1391 1389 1388 1387 1386 1385 1383 1382 1381 1380 1379 1378 1377 1376 1375 1375 1374 1374 1373 1372 1372 1371 1371 1370 1369 1369 1368 1368 1367 1367 1367 1366 1366 1366 1366 1365 1365 1365 1365 1365 1365 1365 1365 1365 1365 1365 1365 1366 1366 1368 1369 1369 1370 1370 1371 1372 1372
1405 1403 1402 1401 1400 1399 1398 1396 1396 1394 1393 1392 1391 1390 1388 1387 1386 1385 1384 1383 1381 1380 1379 1378 1377 1376 1375 1375 1374 1373 1373 1372 1371 1371 1370 1370 1369 1368 1368 1367 1367 1367 1366 1366 1366 1365 1365 1365 1364 1364 1364 1364 1364 1364 1364 1364 1364 1364 1364 1364 1365 1366 1367 1368 1368 1369 1370 1371 1371
Wind_Speed
31 27 22 16 9 4 2 3 4 5 5 6 6 6 6 7 8 8 8 8 9 9 9 9 9 8 8 11 13 15 15 15 16 18 19 21 22 23 24 26 28 32 36 39 42 44 46 47 46 45 45 44 43 43 44 45 46 47 47 48 48 47 45 44 43 44 45 44 42
34 32 29 24 17 11 7 5 4 3 2 1 2 3 5 6 7 7 7 7 8 8 9 9 9 7 7 11 14 16 16 16 18 20 21 23 23 23 24 24 25 28 33 37 41 43 45 46 46 46 45 44 44 44 44 46 46 47 47 48 49 47 45 42 41 42 43 42 42
33 33 33 31 26 20 15 12 10 8 7 4 1 2 4 5 5 5 5 5 6 6 7 8 8 7 8 12 15 16 17 19 21 23 24 25 24 24 24 23 24 26 31 36 40 42 44 45 46 46 46 45 45 45 45 45 46 46 47 47 47 45 43 41 40 41 41 42 42
30 30 31 32 31 27 22 16 10 6 5 4 3 1 1 2 3 5 5 4 4 4 6 7 8 9 10 13 15 17 19 22 24 25 26 26 25 25 24 24 24 26 30 35 38 41 43 44 46 46 45 45 44 44 44 44 45 45 45 45 44 43 42 41 41 41 41 42 42
30 29 28 28 28 28 26 21 16 10 7 4 2 1 1 2 4 5 6 5 4 4 5 7 9 11 13 15 17 19 21 23 24 25 26 26 25 25 25 25 25 27 30 34 37 39 41 43 44 44 44 44 43 42 42 43 44 45 44 44 43 43 42 42 42 42 42 42 42
31 29 27 26 25 24 23 21 18 14 10 7 5 2 1 3 4 6 6 7 5 5 5 7 10 13 15 17 19 21 24 25 25 25 25 26 26 26 26 26 27 28 31 34 37 39 41 42 43 43 43 43 42 42 43 44 44 44 44 43 43 43 43 43 44 44 42 41 40
31 29 27 25 24 23 22 21 19 16 13 10 7 5 4 4 5 6 6 6 6 6 7 8 10 13 15 18 21 24 26 27 27 26 26 26 27 27 28 29 29 30 32 34 36 38 40 42 42 43 43 42 41 42 42 44 44 43 42 42 43 43 44 44 44 42 40 38 38
29 28 27 25 24 23 22 20 19 18 16 13 10 6 4 4 5 6 6 7 7 8 9 10 11 13 15 19 22 25 26 27 28 28 28 28 28 29 30 31 31 33 34 35 36 37 39 41 42 43 42 41 40 41 42 43 42 41 41 41 42 42 43 43 41 39 37 35 35
28 27 26 25 23 22 21 19 19 18 18 16 14 10 6 3 3 5 7 8 9 10 11 12 13 15 17 20 23 24 25 26 28 29 29 29 30 31 32 33 34 35 36 37 36 37 38 41 42 42 41 39 39 40 41 41 41 39 39 39 39 39 39 39 38 36 34 32 32
27 26 25 25 24 22 21 19 18 18 18 17 16 14 10 7 3 2 4 7 9 11 13 14 15 17 18 20 22 24 25 26 27 28 29 30 30 31 33 34 34 35 36 36 35 36 37 40 41 41 39 38 38 38 39 39 38 37 36 35 35 34 34 34 34 33 31 30 29
27 26 25 24 23 23 21 20 20 19 18 17 16 15 14 11 7 4 1 4 7 10 12 14 16 17 18 19 20 22 23 24 26 27 28 29 30 31 33 33 34 34 33 33 33 34 36 39 40 40 40 38 36 35 35 35 35 33 32 31 31 31 31 31 31 30 29 28 27
28 26 25 23 23 22 22 21 20 20 19 18 17 16 15 14 11 7 4 2 3 6 8 10 12 14 16 18 19 19 21 22 24 25 27 28 29 30 32 33 32 32 31 31 32 33 35 38 39 39 38 36 34 33 32 32 31 30 28 28 28 29 29 29 29 28 28 27 26
28 27 25 24 23 22 22 21 21 20 19 18 17 16 15 14 12 10 8 6 3 1 2 4 6 9 12 14 16 18 19 20 22 24 25 26 28 29 31 32 32 32 31 32 32 33 34 35 35 35 34 31 30 29 29 29 27 25 24 24 25 26 27 26 26 26 25 25 25
28 27 26 25 24 23 22 22 21 19 19 18 17 16 15 14 13 12 11 10 8 7 4 2 2 4 6 10 13 15 17 19 21 23 24 25 26 28 29 30 31 32 32 32 32 32 31 30 29 28 27 26 25 26 26 25 23 21 20 20 21 22 22 22 22 22 23 23 23
28 27 26 26 25 24 23 22 21 20 19 18 17 16 14 13 13 13 13 12 11 10 10 7 5 2 2 5 8 11 14 17 19 21 23 25 26 27 28 29 30 30 31 31 30 29 27 26 24 23 22 22 22 23 23 22 20 19 18 17 17 17 18 18 19 20 21 21 22
29 27 26 25 25 25 24 23 22 21 19 18 17 16 15 13 12 12 12 12 11 10 10 10 9 7 4 2 3 6 9 11 14 17 20 22 24 26 27 27 28 28 28 28 27 26 24 23 22 21 20 20 21 21 21 20 19 18 18 17 16 16 17 18 19 20 20 20 20
30 28 27 25 25 25 25 24 23 21 20 18 17 16 16 14 12 11 10 10 9 9 8 8 9 9 8 6 4 3 4 6 8 10 13 16 19 21 23 24 25 25 25 25 25 24 23 23 22 21 20 20 20 20 20 20 19 19 18 18 17 18 19 20 20 19 18 17 17
32 30 28 26 25 24 24 24 23 22 21 19 17 16 15 15 13 12 10 8 8 7 6 5 6 7 8 7 6 4 3 3 4 6 8 10 13 16 18 21 22 23 23 23 23 23 22 23 22 22 21 21 21 20 20 20 20 20 19 19 20 21 22 22 21 19 17 15 14
32 31 30 28 26 24 23 23 23 22 21 20 18 17 15 14 13 12 11 10 8 7 6 5 4 4 5 6 6 5 4 3 4 4 5 7 9 11 14 17 19 21 22 22 22 21 21 22 22 22 22 21 20 20 20 20 20 20 21 21 22 23 23 22 20 18 16 13 12
32 31 31 29 27 25 23 22 21 21 20 19 18 17 16 15 13 12 12 11 10 8 6 5 4 4 3 3 5 6 5 5 4 4 4 4 6 8 11 13 16 19 20 21 21 21 21 22 21 21 20 20 19 19 20 20 21 21 22 23 24 24 23 21 19 16 14 11 11
32 31 30 29 28 26 25 23 21 20 19 18 18 17 17 15 14 13 11 10 9 8 7 6 5 4 3 3 3 4 5 6 6 5 4 4 4 6 8 11 14 16 18 20 21 21 21 21 20 20 19 19 19 20 20 21 22 22 23 24 24 24 23 20 17 15 13 13 13
31 30 30 29 28 27 25 24 22 20 18 17 17 16 16 16 15 14 12 10 8 8 7 7 6 5 4 3 2 2 3 5 6 7 6 5 5 5 7 9 11 14 16 18 19 19 19 18 18 18 18 18 19 19 20 21 22 22 23 24 24 23 22 19 18 17 18 18 19
30 30 29 28 28 27 26 25 23 22 20 18 17 16 15 15 15 14 12 11 9 7 7 6 6 5 4 3 2 1 1 3 5 7 7 7 6 6 6 8 10 13 15 16 16 16 15 15 16 17 17 17 18 19 19 20 21 22 23 24 24 23 21 20 19 20 22 23 24
30 29 29 28 27 27 26 25 24 24 22 20 18 16 15 14 13 13 12 11 10 9 7 6 5 4 4 3 2 1 1 1 3 5 7 7 7 7 6 7 9 11 13 13 13 13 13 14 15 16 16 17 18 18 19 19 20 20 21 22 23 22 21 20 19 19 21 23 24
29 29 29 29 28 27 26 26 26 25 24 22 21 18 16 14 13 12 11 11 10 10 8 7 5 4 3 2 2 1 1 0 1 3 4 7 7 7 6 6 8 10 11 12 12 13 13 14 14 15 16 16 17 18 18 17 17 17 17 19 20 20 20 19 18 18 18 18 19
29 29 29 29 28 28 27 27 26 26 25 23 22 20 18 16 14 12 11 10 9 9 9 8 7 6 4 3 1 1 0 0 0 2 3 4 6 7 7 6 6 7 10 11 13 14 14 14 14 14 15 15 16 17 16 16 15 14 14 15 15 15 16 16 16 15 15 15 14
28 29 29 29 29 28 28 27 27 26 25 24 23 22 21 19 17 15 13 11 9 8 8 7 8 8 7 5 3 1 0 1 1 1 2 3 4 6 6 6 6 6 8 11 13 15 15 15 15 15 15 15 15 16 16 15 14 13 13 13 13 13 12 13 13 12 12 12 13
28 28 29 29 29 29 28 28 27 27 26 26 25 23 22 20 19 17 15 13 11 9 8 7 7 7 7 7 6 4 2 0 1 2 3 3 4 5 6 7 7 7 8 10 13 14 15 15 16 15 15 15 16 16 16 15 15 14 14 14 13 13 12 12 11 12 12 13 14
27 28 28 28 29 29 29 28 28 28 27 26 25 24 23 21 20 19 17 15 14 12 11 9 8 7 7 7 6 6 5 4 2 0 2 4 4 5 6 7 9 9 10 11 12 14 15 15 16 16 16 16 16 17 17 17 16 16 16 15 15 15 14 13 13 13 14 15 16
26 27 27 28 28 28 28 28 28 28 27 26 26 25 24 23 22 20 19 17 16 14 13 11 9 8 7 6 6 6 6 5 4 3 1 1 3 5 6 8 9 10 11 12 14 14 15 15 16 16 16 16 17 17 18 18 18 18 18 17 17 17 16 15 14 14 15 15 16
26 26 27 27 27 28 28 28 28 27 27 26 26 25 25 24 23 22 20 19 17 15 14 12 10 8 7 6 6 6 6 6 5 5 4 3 1 1 4 6 8 9 9 11 12 14 15 16 16 17 17 16 17 18 19 19 20 19 19 19 19 18 18 17 17 16 16 16 17
25 26 26 27 27 27 27 27 27 27 27 27 26 26 25 25 24 22 21 19 18 16 15 13 11 10 9 7 6 6 6 6 6 6 6 4 3 3 2 2 4 6 7 8 9 11 14 16 17 17 18 18 18 18 19 20 21 21 20 19 19 19 20 20 19 18 17 17 17
25 25 26 26 26 27 27 27 26 27 27 26 26 26 26 25 24 23 22 20 19 18 17 15 14 12 10 9 8 7 6 6 6 6 7 7 6 5 4 3 3 3 4 5 6 8 10 14 17 19 19 19 19 19 19 20 21 21 20 20 20 20 21 22 22 20 18 17 17
25 25 26 26 26 26 26 26 26 26 26 26 26 26 26 26 25 24 23 22 20 19 18 17 15 14 12 11 10 8 7 7 7 6 7 7 8 8 7 6 5 4 4 4 4 5 7 9 13 17 20 21 22 21 21 21 21 21 20 19 19 19 21 22 23 22 20 17 17
25 25 25 26 26 26 26 25 25 25 26 26 26 26 26 26 26 26 25 23 21 20 19 17 16 14 13 12 11 10 9 8 7 7 7 7 7 8 8 8 8 7 7 6 6 5 5 6 8 12 16 20 23 24 24 23 23 22 21 20 19 19 19 20 21 22 21 19 17
25 25 25 25 25 25 25 25 25 25 25 26 26 26 26 26 26 26 25 24 22 21 20 18 17 15 14 13 12 11 10 9 8 8 8 8 7 7 7 8 9 9 9 9 9 8 8 7 6 7 10 14 19 23 25 26 26 25 23 22 21 19 18 18 18 20 20 19 18
24 24 25 25 25 25 25 25 25 25 25 25 26 26 26 26 26 26 25 25 24 23 22 20 18 17 16 14 13 13 12 11 10 9 9 8 8 7 7 7 8 9 10 10 11 11 11 11 9 8 7 8 11 16 22 25 27 28 27 25 23 20 17 16 17 18 19 19 18
23 24 24 24 24 24 24 25 25 25 25 25 25 25 25 25 25 26 26 25 25 24 23 22 20 18 17 15 14 13 12 11 11 10 10 9 9 9 8 7 7 8 9 10 11 12 13 14 14 13 11 9 9 11 15 20 25 28 29 28 24 20 16 15 16 17 18 18 17
23 23 23 23 23 24 24 24 24 25 25 25 25 25 25 25 25 25 25 25 25 25 24 23 21 19 17 16 14 13 12 11 11 11 10 10 10 9 9 8 8 8 8 9 10 11 12 13 14 15 15 14 13 11 12 15 20 25 28 28 23 19 16 15 16 17 18 17 17
22 22 22 23 23 23 23 24 24 24 24 24 24 24 24 24 24 24 25 24 24 24 24 23 21 20 18 17 15 14 13 11 11 11 10 10 10 9 9 9 8 8 8 8 8 9 10 11 12 14 16 16 16 14 12 13 17 23 26 26 22 19 17 16 17 17 18 18 18
21 21 22 22 22 23 23 23 23 24 24 24 24 24 24 24 23 24 24 24 24 24 23 23 22 20 19 18 16 15 13 12 11 10 10 10 10 10 9 9 8 8 8 7 8 8 8 9 9 11 13 15 16 15 13 12 14 20 25 26 23 20 19 18 18 18 19 19 19
Wind_Direction
46 44 39 31 24 8 314 278 274 276 278 282 283 278 276 279 274 261 241 226 228 239 253 264 269 263 241 220 211 208 210 216 219 223 226 227 222 216 211 210 211 210 209 207 207 206 205 203 202 202 202 203 205 207 208 209 209 209 208 208 207 207 210 212 213 211 208 207 207
49 49 46 41 36 33 35 36 36 35 25 329 279 263 257 256 257 252 239 222 215 223 237 248 254 248 226 209 203 206 213 220 222 223 225 226 222 217 213 213 215 216 215 212 209 207 206 205 204 203 203 203 204 206 208 209 209 208 207 206 206 206 209 212 216 216 213 210 209
51 52 52 50 45 41 39 41 45 53 63 68 50 267 260 258 258 256 246 224 207 210 223 233 236 229 215 205 204 210 218 222 222 222 222 221 217 214 213 215 218 220 219 216 212 210 209 208 207 205 203 202 203 204 205 207 207 206 205 206 207 210 212 214 217 218 216 213 211
54 54 55 56 55 53 51 51 54 62 71 73 61 15 286 271 265 262 255 240 213 203 210 218 220 218 214 212 213 218 222 222 220 219 218 216 213 212 213 216 219 221 221 218 215 212 211 210 209 206 204 204 204 205 207 208 208 206 206 207 211 214 216 217 217 217 217 215 213
56 56 57 58 61 63 65 70 79 92 109 117 105 55 295 245 242 243 243 240 233 223 217 218 218 219 220 221 222 221 220 218 217 217 216 215 213 213 215 218 221 222 221 218 215 213 212 212 210 208 206 206 207 209 211 212 211 208 207 209 212 215 217 217 216 215 215 214 214
55 58 59 60 62 64 66 69 75 87 104 125 140 155 220 240 240 237 234 232 235 239 235 227 224 225 226 225 220 214 212 212 215 216 217 216 215 216 218 220 222 222 221 219 215 214 214 214 211 210 209 210 211 213 215 215 212 209 207 208 211 214 215 215 214 213 213 213 214
53 57 59 60 61 62 64 66 69 74 83 96 117 143 177 211 232 238 236 232 236 241 238 230 225 226 225 219 209 204 204 206 211 214 216 217 218 218 219 220 222 222 221 219 216 216 216 215 213 212 212 213 214 216 216 215 212 208 207 207 209 211 212 211 212 212 213 213 214
51 54 57 58 59 60 62 64 66 68 70 73 79 95 130 171 199 215 224 227 230 233 232 227 221 217 213 206 200 198 199 203 206 210 213 216 218 219 220 220 221 221 220 218 216 216 217 217 215 214 214 214 216 216 216 215 212 210 208 206 206 207 208 209 212 213 214 214 213
49 51 54 56 56 55 56 59 62 65 67 68 67 65 71 101 154 183 195 202 208 214 216 214 210 206 201 198 196 197 199 202 205 207 210 214 216 218 219 220 220 220 218 217 216 217 218 218 216 216 216 217 217 217 217 216 214 212 210 207 205 204 205 208 211 213 213 213 211
50 50 52 54 55 54 54 54 56 59 63 65 65 63 58 53 63 134 172 182 190 195 197 199 200 198 196 196 197 199 201 203 205 207 209 212 215 217 219 219 219 218 217 216 217 219 219 218 217 217 218 219 220 220 219 219 217 216 214 211 209 207 206 206 207 209 209 209 208
51 52 54 55 56 57 56 55 52 53 56 60 63 64 62 56 48 45 98 172 179 182 186 190 193 194 195 197 200 203 205 206 207 208 210 211 214 216 218 218 218 218 217 218 220 222 221 220 219 218 219 221 223 225 225 224 222 221 219 217 213 210 208 207 206 206 205 204 203
47 51 54 57 59 60 59 57 53 50 51 55 59 62 64 64 59 48 39 64 162 175 183 190 194 195 195 196 199 203 207 209 210 211 212 213 214 216 216 216 216 217 218 221 223 224 223 222 221 220 221 223 226 228 228 226 224 222 221 219 215 212 209 208 207 205 203 201 200
42 46 49 53 56 59 60 59 55 51 48 49 53 57 60 62 63 58 48 37 41 89 178 198 207 206 203 200 199 200 203 207 210 212 213 214 216 216 215 213 213 214 216 220 223 225 224 224 224 224 224 226 226 225 223 220 217 215 215 214 213 210 208 207 205 204 202 201 201
38 41 44 47 50 54 57 58 58 54 49 47 48 51 54 57 60 60 55 43 31 22 16 352 261 226 214 208 204 203 202 205 207 210 212 214 215 215 214 212 211 212 214 217 221 223 225 225 226 226 225 223 220 217 213 210 207 204 204 205 206 205 204 203 203 204 205 205 207
37 38 40 42 45 47 50 52 54 55 53 50 48 48 51 54 57 61 62 56 41 25 15 11 1 333 256 220 210 207 207 207 208 210 211 213 214 214 214 212 212 212 213 215 217 220 222 223 224 223 221 217 213 208 205 201 198 195 195 197 199 201 202 202 205 207 210 211 212
37 37 37 38 40 42 44 46 48 50 52 52 51 50 50 52 57 62 67 68 61 46 28 19 14 6 351 312 241 220 215 214 214 214 215 215 215 215 215 214 213 213 213 212 213 214 216 217 216 216 214 211 208 205 202 199 196 193 193 196 199 202 205 207 210 211 212 211 211
38 38 37 37 37 38 40 41 43 45 48 51 52 52 51 52 56 61 67 72 76 71 56 34 25 19 13 3 341 291 250 234 227 223 221 220 219 218 217 216 216 215 214 212 210 209 209 209 209 209 209 208 207 206 204 201 198 197 197 199 203 206 209 210 210 208 205 202 201
38 38 38 38 37 36 36 37 38 40 43 46 50 52 53 54 55 60 66 73 79 83 81 68 41 25 18 15 7 347 309 275 255 244 237 232 227 224 222 220 220 219 217 215 212 210 209 208 208 208 207 207 208 209 207 205 203 202 202 204 206 207 207 205 200 194 189 188 192
37 37 38 39 38 37 36 35 35 36 38 41 45 49 53 55 56 58 63 69 75 79 83 87 78 48 22 13 10 2 345 317 289 270 259 250 242 236 231 227 225 223 221 219 217 215 214 212 211 210 210 210 211 211 210 208 207 206 207 207 206 203 199 193 186 179 177 181 193
36 36 37 38 39 39 38 36 34 33 34 36 40 45 49 53 56 58 60 63 69 73 76 75 77 75 56 21 6 3 360 351 336 314 290 271 256 247 241 236 231 227 225 222 220 218 217 216 215 215 215 215 214 213 212 210 209 208 207 205 202 196 189 181 175 173 176 186 204
34 35 35 36 37 39 40 39 37 35 33 33 35 39 43 48 52 56 58 61 65 71 75 73 69 67 67 57 20 358 357 0 1 355 339 312 280 261 250 243 237 232 228 224 221 219 218 218 218 218 218 217 216 214 212 210 207 204 201 198 194 188 181 175 176 183 194 206 218
33 33 33 34 35 37 39 40 40 39 36 34 32 33 36 40 45 49 54 58 63 69 74 76 74 69 62 59 48 359 340 345 354 359 357 343 314 285 265 253 243 237 231 227 223 220 218 216 215 215 215 214 213 211 208 205 201 197 193 189 185 181 178 180 189 201 211 218 223
30 31 31 32 33 34 36 38 40 41 40 38 36 33 32 33 36 41 46 52 57 63 69 75 78 77 72 61 48 22 321 314 326 338 347 348 335 309 282 264 250 240 235 231 226 219 212 207 206 206 206 204 203 201 199 197 195 192 189 185 180 177 178 185 196 206 212 217 221
26 27 29 30 30 31 33 35 37 38 39 40 39 37 34 32 30 31 35 41 47 52 58 64 71 78 80 77 65 45 356 271 285 303 318 331 335 325 300 273 255 244 238 233 224 212 202 198 198 198 196 194 192 191 190 190 191 191 188 183 178 175 175 180 187 195 203 209 215
22 24 25 26 27 28 30 31 33 35 36 37 38 39 38 36 33 29 27 29 34 39 45 51 56 64 73 82 83 75 56 226 222 252 279 300 316 324 316 288 260 245 236 227 214 202 197 198 197 196 192 189 186 185 184 185 185 186 184 181 176 172 170 171 174 178 185 194 201
20 21 21 22 24 25 27 29 30 31 33 34 35 36 38 39 38 35 30 26 24 26 31 38 43 48 52 61 78 105 116 297 242 219 229 255 282 302 312 306 274 244 228 216 205 200 199 202 203 200 196 191 187 185 184 183 183 183 182 181 178 175 173 173 173 174 178 184 192
19 19 19 19 20 21 23 25 27 28 29 30 31 33 34 36 37 37 36 33 28 22 20 23 29 35 39 44 53 70 141 225 257 254 235 225 238 261 282 295 285 251 224 212 205 204 205 207 208 207 204 200 197 194 192 191 190 191 191 191 191 191 190 189 187 189 194 198 203
18 18 17 17 17 18 19 21 23 25 26 27 28 29 30 32 34 35 36 36 34 29 24 19 17 18 22 26 36 43 50 80 227 244 253 249 235 231 241 256 263 256 237 222 216 214 214 215 215 215 213 211 207 205 204 203 202 202 202 202 202 203 206 208 211 214 217 219 221
18 17 16 16 15 15 16 17 19 21 22 24 25 26 27 29 30 32 33 33 33 32 31 27 19 10 3 4 10 18 26 34 41 242 240 246 249 244 238 236 242 246 246 241 236 232 228 225 223 222 220 218 214 212 211 211 210 210 208 207 206 205 206 211 217 223 228 230 230
17 17 16 15 15 14 14 15 15 16 18 20 21 23 24 25 27 28 29 30 30 31 31 29 25 17 6 356 347 345 349 1 12 19 11 247 243 246 247 245 241 241 245 250 252 249 244 237 230 226 224 221 218 216 214 213 213 212 211 209 208 207 208 211 217 224 230 232 234
17 16 16 15 14 13 13 13 13 13 14 15 17 19 21 23 24 25 26 27 28 28 28 27 26 23 18 8 353 338 328 324 327 338 354 10 1 267 251 247 246 243 242 247 254 258 257 249 239 231 227 225 222 220 217 215 214 213 212 212 212 212 213 216 221 225 229 232 234
16 16 15 14 13 13 12 11 11 11 11 12 13 16 18 19 21 22 23 24 25 25 25 23 22 20 18 14 8 356 340 325 313 308 309 319 340 356 345 284 253 246 243 242 247 255 259 257 250 240 232 229 227 224 220 216 214 213 214 215 217 218 218 219 221 223 226 229 233
15 15 14 13 12 12 11 10 9 9 9 9 10 12 14 16 17 19 20 21 22 22 22 21 20 17 14 10 7 3 356 346 332 316 303 295 294 301 317 330 322 286 261 252 247 248 251 254 254 248 240 234 232 229 224 219 215 214 215 219 221 222 222 221 220 220 221 224 229
13 13 13 12 11 10 9 9 9 8 8 8 8 9 11 12 13 14 16 18 19 20 20 19 19 18 15 11 5 0 356 351 344 333 320 306 293 284 282 291 302 307 303 289 272 258 250 248 249 249 246 241 237 234 230 224 220 218 218 221 224 226 226 224 221 218 216 218 222
11 11 11 11 10 9 8 8 8 7 7 7 7 7 8 9 9 10 11 14 16 17 17 17 17 17 16 12 7 1 355 350 345 340 332 322 309 295 283 279 282 286 291 294 292 285 271 255 246 245 246 245 243 240 236 232 228 226 224 225 227 229 230 228 223 217 214 215 217
9 9 9 8 8 7 6 6 7 7 7 7 6 5 5 6 6 6 7 9 10 12 13 13 14 14 13 12 8 4 358 352 346 341 335 330 322 311 298 287 282 280 280 282 283 286 286 280 267 253 246 245 245 244 242 240 237 235 232 230 229 231 232 230 222 215 213 214 214
7 6 6 6 6 5 5 5 5 6 6 6 5 4 3 3 3 3 3 4 5 7 8 9 10 10 10 10 8 5 1 355 349 343 337 331 326 320 312 301 293 287 283 280 278 278 280 283 284 281 271 259 253 249 247 245 243 241 238 234 232 231 230 226 218 213 212 213 211
4 4 4 4 4 4 4 4 4 5 5 5 4 3 2 1 0 0 0 0 1 2 3 4 6 7 8 8 6 4 1 357 352 346 340 334 328 324 320 313 306 298 292 287 283 279 277 278 281 284 287 288 281 268 257 251 248 245 241 237 232 227 221 216 211 211 212 213 210
2 2 2 2 2 2 2 3 3 3 3 3 3 2 0 360 359 359 358 358 358 358 359 360 1 3 4 4 3 1 359 356 353 349 344 338 332 326 322 318 314 309 303 296 291 286 283 279 278 279 281 285 289 285 273 260 254 250 245 238 230 219 211 208 208 210 211 210 208
359 359 359 360 360 0 1 2 2 2 2 1 1 0 360 359 358 357 356 355 355 356 356 357 358 359 360 0 359 358 356 354 352 349 346 340 334 328 322 318 315 313 309 304 299 295 291 287 282 278 276 277 280 282 279 266 256 251 247 239 227 213 205 206 209 210 210 207 204
356 357 358 358 358 359 360 1 1 1 1 360 359 359 358 357 356 355 354 354 353 353 354 354 355 355 356 356 356 355 353 351 349 347 345 341 335 329 324 319 315 312 309 306 303 301 298 295 288 281 276 273 272 275 277 273 258 249 244 238 226 213 205 207 211 213 212 209 205